STARLINK-35692

Last updated on Tue Dec 16 2025 00:02:05 GMT+0000 (Coordinated Universal Time)

1 66513U 25263AE 25349.38615968 .00088384 00000+0 14943-2 0 9991 2 66513 43.0016 109.5746 0002055 266.5350 93.5275 15.50599007 5971
UTC large
Height (km)
Speed (km/s)
/
Latitude / Longitude
Inclination (degrees)
Orbital Period (minutes)
Azimuth
Elevation
Range (km)
Doppler Factor

Next 0 passes for location: London (51.5072 / 0.1276)

Sorry there are no passes over London.